Skip Page Navigation
NASA JPL Caltech
NASA Logo - Jet Propulsion Laboratory + View the NASA Portal
+ Center for Near-Earth Object Studies
JPL Home Earth Solar System Stars & Galaxies Technology
JPL Solar System Dynamics
BODIES ORBITS EPHEMERIDES TOOLS PHYSICAL DATA DISCOVERY FAQ SITE MAP
JPL Small-Body Database Browser
Search: [ help ]  
324299 (2006 DC77)
Classification: Main-belt Asteroid          SPK-ID: 2324299
Ephemeris | Orbit Diagram | Orbital Elements | Mission Design | Physical Parameters | Discovery Circumstances | Close-Approach Data ]

[ show orbit diagram ]
Orbital Elements at Epoch 2459000.5 (2020-May-31.0) TDB
Reference: JPL 14 (heliocentric ecliptic J2000)
 Element Value Uncertainty (1-sigma)   Units 
e .2269294114878434 7.3082e-08  
a 3.159694094029279 5.9289e-08 au
q 2.4426665727896 2.2198e-07 au
i 12.60248771866348 7.9297e-06 deg
node 152.7692412485284 3.7352e-05 deg
peri 187.2989264463504 4.0872e-05 deg
M 24.41889558222393 2.2257e-05 deg
tp 2458861.347984374815
(2020-Jan-12.84798437)
0.00012419 TDB
period 2051.473845587584
5.62
5.7742e-05
1.581e-07
d
yr
n .1754835923325596 4.9392e-09 deg/d
Q 3.876721615268958 7.2744e-08 au
  Orbit Determination Parameters
   # obs. used (total)      177  
   data-arc span      5765 days (15.78 yr)  
   first obs. used      2003-09-22  
   last obs. used      2019-07-05  
   planetary ephem.      DE431  
   SB-pert. ephem.      SB431-N16  
   condition code      0  
   norm. resid. RMS      .59645  
   source      ORB  
   producer      Otto Matic  
   solution date      2019-Sep-24 06:13:11  

Additional Information
 Earth MOID = 1.4344 au 
 Jupiter MOID = 1.53155 au 
 T_jup = 3.128 
[ show covariance matrix ]

Ephemeris | Orbit Diagram | Orbital Elements | Mission Design | Physical Parameters | Discovery Circumstances | Close-Approach Data ]

Physical Parameter Table
Parameter Symbol Value Units Sigma Reference Notes
absolute magnitude H 15.7   n/a MPO450271  
diameter diameter 5.252 km 0.563 urn:nasa:pds:neowise_diameters_albedos::2.0[mainbelt] (http://adsabs.harvard.edu/abs/2011ApJ...741...68M)  
geometric albedo albedo 0.040   0.023 urn:nasa:pds:neowise_diameters_albedos::2.0[mainbelt] (http://adsabs.harvard.edu/abs/2011ApJ...741...68M)  

324299 (2006 DC77)          Discovered 2006-Feb-24 by Spacewatch at Kitt Peak
Reference: 20120406/Numbers.arcLast Updated: 2012-04-09

[ hide close-approach data ]
Close-Approach Data   ...sorted by Date/Time (TDB)
Date/Time (TDB) Time Uncertainty
(days_HH:MM)
Body Nominal Distance (au) Minimum Distance (au) Maximum Distance (au) V-relative (km/s) V-infinity (km/s) JD (TDB) Time Uncertainty (minutes) Semi-major axis (km) Semi-minor axis (km) range-LOV angle (deg) N-sigma BP Orbit Ref. Reference Modified
1933-Apr-17 01:54 00:06 Jupiter 1.61984342543361 1.61983975052089 1.61984710049044 2.78869450897997 2.59441885138668 2427179.579209741 6.41771475716708 828.955113644591 41.5048497036736 -77.4118928149257 1396231.46106871 T 14 CATAB v2.0f-lin.ifort 2019-Sep-24 06:13:12 2019-Sep-24 06:13
1944-Jan-20 14:52 00:05 Jupiter 1.56557322159417 1.56557162802003 1.56557481521583 2.71274917531599 2.50538370944213 2431110.119270142 5.21713490381047 522.682975470251 48.5412011997248 81.3862738392455 1506458.59219435 T 14 CATAB v2.0f-lin.ifort 2019-Sep-24 06:13:12 2019-Sep-24 06:13
1954-Aug-15 19:39 00:05 Jupiter 1.93752901365715 1.93752572145653 1.93753230587704 2.47632399388075 2.29299973677463 2434970.318623857 5.28821851357109 403.049347811378 72.2042281762909 -72.4888655232126 1417275.95990745 T 14 CATAB v2.0f-lin.ifort 2019-Sep-24 06:13:12 2019-Sep-24 06:13
2029-Mar-16 11:41 00:02 Jupiter 1.93546399169318 1.9354627255412 1.93546525784527 2.55458895948233 2.37711151661487 2462211.986602610 1.56470795655188 133.813072868839 67.7079193407478 -83.7088555281208 1260501.5405282 T 14 CATAB v2.0f-lin.ifort 2019-Sep-24 06:13:12 2019-Sep-24 06:13
2039-Nov-14 18:41 00:02 Jupiter 1.56540151074251 1.56540062206883 1.56540239942561 2.77601971437806 2.57373390337829 2466107.278816447 2.37820810156366 333.84973646939 40.1180152458189 -84.4383081707054 1392886.58447371 T 14 CATAB v2.0f-lin.ifort 2019-Sep-24 06:13:12 2019-Sep-24 06:13
2050-Aug-16 17:22 00:04 Jupiter 1.62175962586559 1.62175750199538 1.62176174974602 2.72782315700738 2.52911980121604 2470035.223803304 3.85740211657016 283.82974262232 74.4559576789607 72.5637531096014 1755851.59132739 T 14 CATAB v2.0f-lin.ifort 2019-Sep-24 06:13:12 2019-Sep-24 06:13
2135-Oct-03 06:18 00:11 Jupiter 1.83349754366684 1.83349040516593 1.83350468224739 2.46670917845342 2.27172013354665 2501127.762251872 11.4817298955002 737.921830208754 100.925791036368 -56.9967347858633 1129585.33458734 T 14 CATAB v2.0f-lin.ifort 2019-Sep-24 06:13:12 2019-Sep-24 06:13
2146-Jun-15 09:12 00:11 Jupiter 1.54332707414664 1.5433257751382 1.5433283735296 2.78038723601111 2.57544080931051 2505035.883188536 10.8714514686699 1432.19817768114 37.0992394914332 -87.1310641128079 1410023.76537497 T 14 CATAB v2.0f-lin.ifort 2019-Sep-24 06:13:12 2019-Sep-24 06:13
2157-Mar-07 17:28 00:14 Jupiter 1.71036109510527 1.71035305339664 1.71036913685542 2.78271780131618 2.59866463879482 2508954.228012453 13.721448651035 604.020664237038 120.931757224475 48.9410104290424 1790301.73630295 T 14 CATAB v2.0f-lin.ifort 2019-Sep-24 06:13:12 2019-Sep-24 06:13

Alternate Designations
 2006 DC77 = 2008 OV6 
Ephemeris | Orbit Diagram | Orbital Elements | Mission Design | Physical Parameters | Discovery Circumstances | Close-Approach Data ]
ABOUT SSD CREDITS/AWARDS PRIVACY/COPYRIGHT GLOSSARY LINKS
FirstGov 2020-Oct-28 03:59 UT
(server date/time)  
NASA Home Page
Site Manager:   Ryan S. Park
Webmaster  Alan B. Chamberlin